Regional Weather Roundup
Issued by NWS

Home | Current Version | Previous Version | Graphics & Text | Print | Product List | Glossary On
Versions: 1 2 3 4 5 6 7 8 9 10 11 12 13 14 15 16 17 18 19 20 21 22 23 24 25 26 27 28 29 30 31 32 33 34 35 36 37 38 39 40 41 42 43 44 45 46 47 48 49 50
000
ASUS43 KTOP 151459
RWRKS

WEATHER ROUNDUP FOR KANSAS
NATIONAL WEATHER SERVICE GOODLAND KS
1000 AM CDT TUE APR 15 2014

NOTE:  "FAIR" INDICATES FEW OR NO CLOUDS BELOW 12,000 FEET WITH NO
SIGNIFICANT WEATHER AND/OR OBSTRUCTIONS TO VISIBILITY.

KSZ001>006-013>018-027>032-041>047-151600-
NORTHWEST KANSAS

CITY           SKY/WX    TMP DP  RH WIND       PRES   REMARKS
GOODLAND       SUNNY     43  20  39 SW21G26   30.02F
HAYS           SUNNY     39  19  45 SW8       30.13F
HILL CITY      SUNNY     45  23  42 SW9       30.09F
RUSSELL        SUNNY     39  20  46 S8        30.14F
$$

KSZ061>065-074>080-084>089-151600-
SOUTHWEST KANSAS

CITY           SKY/WX    TMP DP  RH WIND       PRES   REMARKS
DODGE CITY     SUNNY     45  18  34 SW10      30.15F
ELKHART          N/A     41  21  44 SW17        N/A
GARDEN CITY    SUNNY     44  21  40 SW16      30.12F
GREAT BEND     SUNNY     43  19  39 W8        30.16F
LIBERAL        SUNNY     43  27  52 S17       30.17F
$$

KSZ066>073-081>083-090>101-151600-
SOUTHEAST KANSAS

CITY           SKY/WX    TMP DP  RH WIND       PRES   REMARKS
CHANUTE        SUNNY     42  27  55 SE6       30.23S
COFFEYVILLE    SUNNY     42  28  57 CALM      30.24S
HUTCHINSON     SUNNY     43  21  41 VRB3      30.19F
MEDICINE LODGE   N/A     46  24  42 SW3       30.20F
NEWTON         SUNNY     41  25  52 S5        30.22F
PARSONS        SUNNY     43  27  53 CALM      30.24S
WICHITA INTL   SUNNY     44  25  47 SE3       30.21F
WICHITA JABRA  SUNNY     42  25  50 CALM      30.21S
WINFIELD       SUNNY     43  26  51 CALM      30.24S
$$

KSZ007>012-019>026-033>040-048>060-102>105-151600-
NORTHEAST KANSAS

CITY           SKY/WX    TMP DP  RH WIND       PRES   REMARKS
CONCORDIA      SUNNY     42  28  57 SE8       30.16F
EMPORIA        SUNNY     43  26  51 NE3       30.20F
LAWRENCE       SUNNY     41  31  67 CALM      30.23R
MANHATTAN      SUNNY     40  31  70 CALM      30.21F
OLATHE IND     SUNNY     41  24  51 VRB3      30.23R
OLATHE EXE     SUNNY     40  22  48 VRB5      30.21R
SALINA         SUNNY     41  26  55 S7        30.20F
TOPEKA BILLARD SUNNY     43  25  49 CALM      30.23F
TOPEKA FORBES  SUNNY     42  26  53 CALM      30.22S
$$



USA.gov is the U.S. government's official web portal to all federal, state and local government web resources and services.